Location: Smithers
(54.7670°N, 127.1670°W)
Time: 19:45:43
(UTC-07:00)

Daily predictions for brighter satellites

Satellite Brightness Start Highest point End
(mag) Time Altitude Azimuth Time Altitude Azimuth Time Altitude Azimuth
ERS-1 Rocket 3.1 21:24:01 10° SSE 21:28:59 63° ENE 21:33:58 10° NNW
Cosmos 1408 2.8 21:26:13 10° NNW 21:29:57 75° W 21:33:38 10° S
Cosmos 1862 Rocket 4.1 21:31:10 10° SSE 21:35:22 41° E 21:39:36 10° NNE
Cosmos 1634 Rocket 4.1 21:29:10 10° S 21:35:29 84° E 21:41:52 10° NNE
Cosmos 1655 Rocket 4.1 21:29:10 10° N 21:35:38 88° ENE 21:42:02 10° S
Cosmos 2278 Rocket 3.7 21:30:59 10° NNW 21:35:45 26° NNE 21:40:29 10° E
Abrixas rocket 3.8 21:36:20 10° SSW 21:38:44 19° SSE 21:41:09 10° ESE
ARGOS 3.6 21:35:14 10° SE 21:40:21 47° ENE 21:45:30 10° N
SeaSat 1 2.6 21:37:19 10° SE 21:42:14 70° NE 21:47:10 10° NNW
Cosmos 1844 Rocket 3.4 21:40:01 10° NNW 21:45:21 44° NE 21:50:40 10° ESE
Cosmos 1992 Rocket 4.4 21:43:21 10° S 21:48:15 42° ESE 21:53:11 10° NE
Cosmos 1455 3.7 21:47:13 10° SW 21:50:49 40° WNW 21:54:26 10° N
CENTAUR R/B 2.9 21:44:26 10° WSW 21:50:52 78° NW 21:58:17 10° NE
Intercosmos 25 Rocket 3.3 21:48:25 10° S 21:51:47 82° ESE 21:56:36 10° NNE
SL-08 RB Rocket 4.3 21:48:02 10° SE 21:52:22 43° ENE 21:56:42 10° N
Terra 3.2 21:49:08 10° ESE 21:52:58 25° ENE 21:56:48 10° N
Cosmos 2360 4.3 21:47:15 10° SSW 21:53:00 87° WNW 21:58:49 10° NNE
Cosmos 2242 Rocket 3.6 21:49:56 10° S 21:54:27 89° E 21:58:58 10° NNE
Cosmos 2266 Rocket 4.1 21:49:55 10° N 21:56:07 62° ENE 22:02:24 10° SSE
YAOGAN 11 4.1 21:51:54 10° SSE 21:56:15 68° ENE 22:00:34 10° NNW
Cosmos 1869 4.2 22:01:07 10° SSW 22:04:57 51° WNW 22:08:52 10° N
Meteor 1-29 3.3 22:01:42 10° N 22:05:12 70° WNW 22:08:40 10° SSW
Cosmos 1867 3.9 22:03:05 10° NW 22:08:31 64° SW 22:13:26 12° SSE
DNEPR-1 R/B 4.2 22:04:19 10° SW 22:09:42 70° NW 22:14:17 10° NE
CZ-4C R/B 3.2 22:03:21 10° NW 22:09:47 56° NNE 22:17:08 10° ESE
YAOGAN 6 3.4 22:07:04 10° S 22:10:38 50° W 22:14:09 10° NNW
Cosmos 2219 Rocket 4.1 22:10:19 10° ESE 22:11:23 11° E 22:12:28 10° E
Resurs 01 Rocket 4.4 22:09:26 10° WSW 22:12:00 15° W 22:14:34 10° NW
Cosmos 2084 4.0 22:08:49 10° NW 22:12:28 43° NNE 22:15:54 12° E
Molniya-1 3.1 22:13:06 10° SW 22:15:15 64° SE 22:18:33 10° NE
Meteor 1-14 Rocket 4.2 22:09:43 10° NNW 22:15:22 81° ENE 22:20:56 11° SSE
MetOp-A 4.2 22:10:31 10° SSE 22:15:53 81° WSW 22:21:18 10° NNW
Cosmos 2279 Rocket 4.1 22:10:19 10° SSW 22:16:35 84° WNW 22:22:51 10° N
Cosmos 1697 Rocket 4.2 22:11:16 10° WSW 22:16:36 41° NW 22:21:57 10° NNE
H-2A R/B 2.2 22:14:05 14° SE 22:18:16 57° ENE 22:23:07 10° N
MOS 1-B Rocket 3.9 22:13:24 11° SSE 22:19:11 81° ENE 22:24:48 10° NNW
Cosmos 968 Rocket 3.8 22:16:53 10° NNW 22:22:01 65° WSW 22:26:54 11° SSE
USA 267 3.3 22:16:35 10° ENE 22:23:10 90° ESE 22:29:46 10° WSW
Cosmos 2263 Rocket 3.4 22:20:48 10° NW 22:25:54 37° WSW 22:30:57 10° S
ASTEX 1 4.4 22:23:01 16° SE 22:26:17 33° ENE 22:30:43 10° N
Sich 1 Rocket 3.9 22:22:29 10° NNW 22:26:55 66° W 22:31:22 10° S
SPOT 5 2.9 22:22:39 11° SSE 22:27:16 81° WSW 22:31:54 10° NNW
Cosmos 1933 3.6 22:26:02 10° SSW 22:30:03 69° WNW 22:34:06 10° N
Meteor 1-25 Rocket 4.2 22:25:05 10° NNW 22:30:45 80° ENE 22:35:25 15° SSE
Meteor 2-10 Rocket 3.7 22:30:23 10° S 22:36:13 81° E 22:42:01 10° NNE
COSMOS 2428 3.7 22:34:03 18° SSE 22:36:59 27° ESE 22:41:40 10° NE
Cosmos 2322 Rocket 2.3 22:32:30 10° SW 22:38:08 83° WNW 22:43:49 10° NNE
Cosmos 1908 Rocket 4.3 22:34:36 10° NNW 22:38:49 51° W 22:43:01 10° S
H-2A R/B 2.3 22:38:13 21° SE 22:40:55 58° ENE 22:45:13 10° N
PSLV R/B 4.0 22:40:52 25° ESE 22:41:45 31° ENE 22:44:19 10° N
GENESIS II 4.2 22:39:16 10° SSW 22:43:17 60° SE 22:47:18 10° NE
ATLAS 3B R/B 3.8 22:36:41 10° WNW 22:43:27 42° N 22:49:52 10° E
Cosmos 1844 3.7 22:42:34 10° NNW 22:48:19 80° NE 22:52:07 22° SE
Cosmos 2360 Rocket 2.2 22:42:52 10° SSW 22:48:25 58° ESE 22:53:59 10° NE
Cosmos 1980 Rocket 3.8 22:44:25 10° WSW 22:49:44 39° NW 22:55:06 10° NNE
Meteor 1-20 Rocket 4.2 22:44:31 10° NNW 22:50:05 85° WSW 22:54:26 18° S
Cosmos 1606 3.6 22:49:05 25° SE 22:50:16 31° E 22:53:39 10° NNE
Cosmos 1782 Rocket 4.0 22:48:36 10° NNW 22:52:55 60° W 22:56:22 15° S
Cosmos 1633 3.0 22:50:34 10° N 22:54:06 46° ENE 22:55:35 29° SE
Okean 2 Rocket 3.3 22:52:04 10° NNW 22:56:37 74° W 22:59:46 19° S
Cosmos 2322 3.8 22:51:02 10° SSW 22:56:38 58° ESE 23:02:14 10° NE
IGS 5A 3.6 22:55:15 26° SE 22:57:26 63° ENE 23:01:34 10° N
Cosmos 1300 Rocket 4.3 22:56:33 10° N 23:00:40 40° ENE 23:02:35 26° ESE
SPOT 1/Viking Rocket 4.0 23:01:38 16° S 23:05:47 57° WSW 23:10:57 10° NNW
SL-16 R/B 2.8 23:00:29 10° SW 23:06:06 60° NW 23:11:45 10° NNE
ATLAS 5 CENTAUR R/B 3.7 23:01:25 10° WNW 23:06:25 29° WSW 23:10:52 14° S
Cosmos 1782 2.9 23:04:48 29° SSE 23:06:37 56° E 23:10:34 10° NNE
USA 129 3.8 23:11:43 10° N 23:12:23 20° N 23:12:23 20° N
Abrixas rocket 3.7 23:12:07 10° WSW 23:14:03 23° SSW 23:14:03 23° SSW
Landsat 7 4.1 23:12:13 22° S 23:15:14 65° WSW 23:20:00 10° NNW
Cosmos 2333 Rocket 3.2 23:16:06 24° SE 23:17:23 26° ESE 23:22:06 10° NE
Cosmos 1898 Rocket 3.8 23:12:31 10° NNW 23:17:39 56° ENE 23:20:22 27° SE
SeaSat 1 4.0 23:16:36 13° SSW 23:20:09 26° WSW 23:24:20 10° NW
Cosmos 2278 Rocket 2.2 23:15:01 10° NNW 23:20:43 79° NE 23:23:48 28° SE
ARGOS 4.4 23:15:59 11° SSW 23:20:45 36° W 23:25:44 10° NNW
deb Chang Zheng 4 3.7 23:19:25 10° NNE 23:23:47 56° ESE 23:25:30 33° SSE
Cosmos 2237 Rocket 3.4 23:23:19 22° ESE 23:24:06 23° ESE 23:28:26 10° NE
Okean 1-7 3.3 23:21:37 16° SSW 23:25:03 67° WNW 23:29:29 10° N
Timation 1 Rocket 4.4 23:19:57 10° NW 23:25:59 73° NE 23:29:22 27° SE
Cosmos 1346 Rocket 3.4 23:27:02 36° ESE 23:27:40 39° E 23:31:24 10° NNE
Cosmos 1844 Rocket 3.3 23:24:01 10° NW 23:29:21 48° WSW 23:32:24 24° S
Cosmos 2151 Rocket 3.8 23:25:40 10° NNW 23:30:04 68° W 23:32:12 30° S
Terra 2.0 23:27:49 27° S 23:30:21 66° WSW 23:35:08 10° NNW
Cosmos 1745 Rocket 4.0 23:24:57 10° N 23:31:19 79° E 23:34:51 28° SSE
Meteor 1-5 Rocket 4.5 23:27:55 10° N 23:33:25 57° ENE 23:36:07 30° SE
Spot 4 3.8 23:31:24 34° SSE 23:33:32 83° ENE 23:38:21 10° NNW
Cosmos 1602 3.7 23:32:26 10° NNW 23:36:19 79° W 23:37:30 43° S
Cosmos 1417 Rocket 4.5 23:33:11 24° S 23:37:11 77° E 23:43:34 10° NNE
CZ-4 R/B 4.0 23:33:15 10° NNE 23:37:58 57° ESE 23:39:45 35° SSE
CZ-2C R/B 4.3 23:35:31 10° NE 23:39:09 18° E 23:40:23 17° ESE
Iridium 4 Rocket 2.9 23:35:29 10° N 23:39:45 76° E 23:41:03 42° SSE
Meteor 1-27 Rocket 3.8 23:37:46 31° SSE 23:40:23 59° E 23:45:52 10° NNE
DELTA 2 DEB (DPAF) 4.1 23:40:48 38° SSE 23:42:31 86° WSW 23:47:03 10° NNW
CENTAUR R/B 3.9 23:36:02 10° W 23:42:31 45° N 23:49:53 10° ENE
SL-19 R/B 4.4 23:40:24 10° NNE 23:46:40 81° ESE 23:50:25 24° SSW
NOSS 3-1 (C) 3.9 23:46:08 32° SSE 23:47:52 38° ESE 23:53:56 10° NE
CARTOSAT-1 4.4 23:46:49 26° SSW 23:48:46 43° W 23:52:56 10° NNW
DMSP B5D2-2 4.1 23:44:20 10° NNE 23:49:38 82° WNW 23:53:01 23° SSW
USA 229 DEB 3.6 23:44:20 10° SW 23:51:11 73° SE 23:58:11 10° NE
USA 229 3.6 23:44:26 10° SW 23:51:15 73° SE 23:58:16 10° NE
Cosmos 2084 3.6 23:48:21 10° WNW 23:52:01 44° SW 23:52:28 42° SSW
Cosmos 2219 Rocket 2.3 23:51:56 34° S 23:54:04 53° ESE 23:59:33 10° NE
